Temperature
12 12 12 12 12 12 12 12 12 11 11 11 11 10 10 10 10 10 10 9 9 9 9 8 8 8 8 8 8 8 8 8 8 9 9 9 8 8 8 8 8 8 7
11 11 11 11 12 12 11 11 11 11 11 11 10 10 10 10 10 9 9 9 9 9 9 8 8 8 8 8 8 8 8 8 8 8 8 8 8 8 8 7 7 7 7
10 10 11 11 11 11 11 11 11 10 10 10 10 9 9 9 9 9 9 9 9 8 8 8 8 8 8 8 8 8 8 8 7 7 7 7 7 7 7 7 7 7 6
10 10 10 10 10 10 10 10 10 10 9 9 9 9 9 9 9 9 9 9 8 8 8 8 8 8 8 8 7 7 7 7 7 7 7 7 7 7 6 6 6 6 6
9 9 9 9 9 9 9 9 9 9 9 9 9 9 9 9 8 8 8 8 8 8 8 8 8 8 8 7 7 7 7 7 7 7 6 6 6 6 6 6 5 5 5
8 8 8 8 8 8 8 8 8 8 8 8 8 8 8 8 8 8 8 8 8 8 8 8 7 7 7 7 7 7 7 7 6 6 6 6 6 6 6 5 5 5 4
7 7 7 7 7 8 8 8 8 8 8 8 8 8 8 8 8 8 8 8 8 8 7 7 7 7 7 7 7 7 6 6 6 6 6 6 6 6 5 5 5 4 4
6 6 6 6 7 7 7 7 7 7 7 7 7 7 7 8 8 8 7 7 7 7 7 7 7 7 7 6 6 6 6 6 6 6 6 6 5 5 5 5 4 4 3
6 5 5 5 6 6 6 6 6 6 6 6 6 7 7 7 7 7 7 7 6 7 7 6 6 6 6 6 6 5 6 6 6 5 5 5 5 4 4 4 3 3 2
5 5 5 5 5 5 5 5 5 5 5 6 6 6 6 6 6 6 6 6 6 6 6 6 5 5 5 5 5 5 5 5 5 5 4 4 4 4 4 3 3 2 2
4 4 4 4 4 4 4 4 4 5 5 5 5 5 5 5 5 5 5 5 5 5 5 5 5 5 5 5 4 4 4 4 4 4 4 3 3 3 3 3 2 2 1
3 3 3 4 3 3 3 4 4 4 4 4 4 4 4 4 4 5 4 4 5 5 5 4 4 4 4 4 4 4 3 3 3 3 3 3 3 2 2 2 1 1 1
2 3 3 3 3 3 3 3 3 3 3 3 3 3 3 3 4 4 4 4 4 4 4 4 4 3 3 3 3 3 3 3 3 2 2 2 2 1 1 1 1 0 -0
2 2 2 2 2 2 2 2 2 2 2 2 2 3 3 3 3 3 3 3 3 3 3 3 3 3 3 2 2 2 2 2 2 2 1 1 1 1 0 0 -0 -0 -1
1 1 1 1 1 1 1 1 1 1 1 1 2 2 2 2 2 2 2 2 2 2 2 2 2 2 2 2 2 1 1 1 1 1 1 0 -0 -0 -0 -1 -1 -1 -2
0 0 -0 0 0 0 0 0 0 0 0 1 1 1 1 1 1 1 1 2 2 2 2 2 1 1 1 1 1 1 1 0 0 -0 -0 -1 -1 -1 -1 -2 -2 -2 -2
-1 -1 -1 -1 -1 -1 -1 -1 -0 -0 -0 0 0 0 1 1 1 1 1 1 1 1 1 1 1 1 1 1 0 0 -0 -0 -0 -1 -1 -1 -2 -2 -2 -2 -3 -3 -3
-2 -2 -2 -1 -1 -1 -1 -1 -1 -1 -1 -1 -0 -0 -0 -0 0 0 0 0 0 0 0 0 0 0 0 -0 -0 -0 -1 -1 -1 -1 -2 -2 -2 -3 -3 -3 -3 -3 -4
-2 -2 -2 -2 -2 -2 -2 -2 -2 -2 -2 -1 -1 -1 -1 -1 -1 -1 -1 -1 -1 -1 -1 -1 -1 -1 -1 -1 -1 -1 -1 -1 -1 -2 -2 -2 -3 -3 -3 -3 -4 -4 -4
-3 -3 -3 -3 -3 -3 -2 -2 -2 -2 -2 -2 -2 -2 -2 -1 -1 -1 -1 -1 -1 -1 -1 -1 -1 -1 -1 -2 -2 -2 -2 -2 -2 -2 -3 -3 -3 -3 -4 -4 -4 -4 -5
-4 -4 -4 -3 -3 -3 -3 -3 -3 -3 -3 -3 -2 -2 -2 -2 -2 -2 -2 -2 -2 -2 -2 -2 -2 -2 -2 -2 -2 -2 -2 -2 -3 -3 -3 -3 -4 -4 -4 -5 -5 -5 -5
-4 -4 -4 -4 -4 -4 -4 -4 -4 -3 -3 -3 -3 -3 -3 -3 -3 -3 -3 -3 -3 -3 -3 -3 -3 -3 -3 -3 -2 -3 -3 -3 -3 -3 -3 -4 -4 -4 -5 -5 -5 -5 -6
-5 -4 -4 -4 -4 -4 -4 -4 -4 -4 -4 -4 -3 -3 -3 -3 -3 -3 -3 -3 -3 -3 -3 -3 -3 -3 -3 -3 -3 -3 -3 -3 -3 -4 -4 -4 -4 -5 -5 -5 -5 -6 -6
-5 -5 -5 -5 -5 -5 -5 -5 -5 -4 -4 -4 -4 -4 -4 -4 -4 -4 -4 -4 -4 -4 -4 -3 -3 -3 -3 -3 -4 -4 -4 -4 -4 -4 -4 -4 -5 -5 -5 -5 -6 -6 -6
-5 -5 -5 -5 -5 -5 -5 -5 -5 -5 -5 -5 -4 -4 -4 -4 -4 -4 -4 -4 -4 -4 -4 -4 -4 -4 -4 -4 -4 -4 -4 -4 -4 -4 -5 -5 -5 -5 -6 -6 -6 -6 -6
-6 -6 -6 -6 -6 -6 -6 -6 -5 -5 -5 -5 -5 -5 -5 -5 -5 -4 -4 -4 -4 -4 -4 -4 -4 -4 -5 -4 -4 -4 -5 -5 -5 -5 -5 -5 -5 -6 -6 -6 -6 -6 -7
Wind_Speed
5 5 5 5 6 6 7 9 10 10 10 11 12 13 14 14 14 14 14 13 15 14 13 14 15 12 10 9 8 8 9 9 12 8 4 4 6 6 5 7 8 8 9
5 5 5 5 5 6 7 8 9 10 11 11 11 12 13 14 14 15 15 14 15 15 15 14 14 11 12 10 9 10 9 9 10 11 5 4 6 7 6 6 5 6 7
5 5 5 5 6 7 8 8 8 8 9 9 10 12 13 14 14 15 15 14 15 15 14 14 14 13 14 11 10 10 9 8 8 8 7 4 4 4 4 4 4 4 5
5 5 5 6 6 7 8 8 7 7 8 8 9 10 11 12 13 13 13 14 14 13 13 13 13 13 14 12 11 11 9 8 8 7 6 4 4 3 4 4 4 4 4
5 5 6 6 6 6 6 6 6 6 7 8 8 8 9 9 10 11 12 12 13 12 11 11 11 12 13 11 9 9 9 9 7 7 7 5 5 4 5 5 6 4 4
5 5 6 6 6 6 6 5 5 5 6 6 7 7 8 8 9 11 11 10 11 11 10 9 9 10 11 12 12 11 11 10 10 9 8 8 8 7 5 5 5 4 4
6 6 6 6 6 6 5 4 5 5 5 5 6 7 7 8 8 9 10 10 9 9 9 8 7 7 9 8 9 10 10 11 11 10 9 10 8 8 8 7 6 6 5
6 6 7 7 6 6 5 5 4 4 4 4 5 5 6 6 6 6 8 8 6 7 7 7 7 6 7 7 7 7 7 7 8 8 9 8 7 6 8 8 7 4 1
6 7 7 7 6 5 5 5 5 4 4 4 4 5 5 5 4 5 4 5 5 5 5 5 6 6 7 8 7 7 6 4 4 5 5 4 5 6 6 5 5 3 3
7 7 6 5 5 5 5 5 5 4 4 4 4 4 4 4 4 4 5 4 4 4 3 4 6 6 7 8 7 6 6 4 3 3 3 3 3 5 6 6 6 5 3
7 6 6 5 5 4 4 4 4 4 3 3 3 3 3 3 3 4 4 3 4 4 3 3 4 6 7 9 8 6 6 5 4 5 4 3 3 2 2 2 3 5 4
6 6 6 5 4 4 4 4 4 3 3 3 2 3 2 2 2 3 4 4 3 3 4 3 4 6 7 7 6 5 6 6 4 4 4 3 3 2 2 1 1 1 2
6 5 5 5 5 4 4 4 4 3 3 3 2 2 2 2 1 2 2 3 3 2 2 4 5 7 7 5 6 6 6 4 4 4 4 3 2 2 2 2 2 2 2
6 5 5 5 5 5 4 3 3 3 3 3 3 3 3 2 1 1 1 1 1 1 1 2 4 5 4 4 4 4 3 3 4 4 3 3 3 2 2 2 2 2 1
6 5 4 4 5 5 4 4 4 3 3 3 3 3 3 3 3 3 1 1 1 2 2 1 2 2 3 2 2 3 3 3 3 3 4 4 3 3 2 2 2 2 1
6 5 4 4 4 4 4 5 5 5 7 6 5 4 3 4 3 2 1 0 2 5 3 2 2 2 3 4 3 3 3 3 3 4 4 4 3 3 3 2 2 2 2
5 5 4 4 4 4 4 4 5 6 6 6 6 6 5 4 3 2 1 2 3 4 2 2 2 2 2 3 4 4 3 3 4 4 4 4 3 3 3 2 2 2 1
5 5 5 4 3 3 4 3 3 4 5 5 6 6 6 4 3 2 3 3 2 2 1 1 2 2 2 3 3 3 3 4 4 4 4 4 4 4 3 3 2 2 2
5 4 4 3 3 3 3 3 3 3 3 4 4 4 5 4 4 4 4 2 1 1 1 1 1 2 2 2 3 3 4 4 4 4 4 3 4 4 3 3 2 2 2
4 6 5 3 3 3 3 3 3 3 3 3 3 3 3 3 2 2 2 1 1 0 0 1 1 1 2 2 3 3 4 4 4 4 4 3 3 3 3 3 3 2 2
4 4 5 4 3 3 3 3 3 3 3 3 3 3 4 2 1 1 1 1 0 0 0 1 1 1 2 2 3 3 4 4 4 4 4 3 3 3 3 3 3 2 2
3 3 3 3 3 3 3 3 3 2 2 3 3 3 5 3 2 1 2 2 1 1 0 1 1 1 2 3 3 4 4 4 4 4 4 4 4 3 3 3 3 2 2
2 3 3 3 3 4 4 3 2 2 2 2 2 2 2 2 2 1 1 1 1 1 1 0 1 0 1 1 2 3 4 4 5 5 5 4 4 4 3 3 3 3 3
2 2 3 3 3 2 2 3 2 2 2 2 2 2 2 2 1 2 1 1 1 1 1 0 0 1 1 1 1 1 2 3 4 5 6 6 5 4 4 3 3 3 3
2 2 2 2 2 2 2 2 2 2 2 2 2 2 2 2 1 1 1 1 1 1 1 1 0 1 1 2 1 2 3 4 4 5 5 5 5 5 4 4 3 3 2
2 2 2 2 2 2 2 2 3 3 2 2 2 2 2 1 1 1 1 1 1 1 1 1 0 1 1 1 2 3 3 4 6 6 5 4 5 4 4 4 4 3 3
Wind_Direction
276 267 267 262 252 243 239 239 239 233 226 225 225 226 223 223 222 223 227 224 225 228 226 227 231 229 229 229 228 228 231 228 244 253 218 207 201 208 212 211 217 219 225
285 283 280 276 272 257 249 244 242 240 231 227 228 229 227 224 222 223 227 225 225 228 229 228 231 229 229 228 227 227 231 229 232 246 243 211 211 207 206 208 215 217 221
293 290 289 286 279 266 256 252 244 241 240 231 227 230 230 227 224 223 224 225 225 228 228 229 231 227 230 229 227 229 229 231 228 234 241 226 214 196 197 212 214 222 227
305 302 294 285 281 277 265 255 250 246 242 238 234 232 231 231 229 226 223 225 227 228 230 230 230 227 230 228 227 228 225 226 227 227 233 227 217 188 183 207 221 218 228
314 311 300 294 291 290 279 267 261 256 249 241 237 237 233 232 234 232 224 224 225 228 229 230 229 227 228 227 226 224 219 223 225 223 226 223 218 196 206 198 214 218 233
320 311 312 307 304 299 286 277 271 269 261 249 240 237 237 241 243 234 227 223 223 223 227 229 227 224 223 221 223 221 217 219 223 222 223 223 223 214 201 195 200 203 236
318 319 322 317 310 305 304 297 281 274 272 261 250 241 243 248 247 234 225 222 221 221 221 222 225 225 220 221 221 220 218 216 214 218 221 223 219 210 195 198 202 206 221
318 320 322 321 316 315 315 309 302 293 280 270 265 257 252 256 246 234 224 224 224 222 220 219 218 219 217 210 212 218 225 225 220 222 225 225 220 202 196 197 196 186 175
319 318 317 318 316 318 315 312 308 306 294 280 274 265 258 268 253 227 218 220 224 225 221 216 217 219 213 196 198 208 218 230 221 206 206 195 185 178 168 155 156 163 213
311 309 312 315 314 312 313 312 310 304 294 290 283 274 261 266 260 230 214 215 219 224 221 216 217 216 202 190 196 199 211 218 189 172 152 131 143 159 164 178 178 179 181
310 313 320 324 321 315 317 312 310 309 305 297 289 289 279 273 258 230 217 214 213 214 213 216 217 205 197 191 193 201 204 183 172 163 154 140 129 138 146 154 173 175 182
315 321 327 328 327 329 321 319 319 317 307 305 306 311 307 296 275 244 230 227 216 211 217 213 207 190 188 187 192 188 161 143 145 147 147 153 157 155 142 122 127 145 169
319 322 325 331 334 331 324 321 320 318 312 314 320 316 320 330 307 288 259 237 231 220 214 200 185 177 175 180 177 164 149 146 146 149 164 170 160 152 137 114 81 78 63
318 321 326 331 331 332 330 323 318 314 315 314 317 319 321 328 328 309 262 250 252 220 150 155 161 155 145 140 146 151 150 151 150 157 156 140 127 128 138 146 142 127 107
318 317 322 326 324 327 330 324 315 309 304 300 295 293 300 303 308 312 304 247 205 177 137 104 108 124 128 127 123 126 128 130 128 128 135 135 134 132 132 121 130 137 155
319 320 320 319 321 323 324 332 343 332 332 328 322 314 308 311 319 331 341 320 149 149 137 140 147 152 153 152 146 139 137 140 140 140 142 145 148 148 142 131 139 153 162
313 314 316 317 320 322 321 322 327 340 347 344 340 337 336 335 344 355 48 97 122 128 126 150 157 159 156 153 151 150 153 152 146 147 150 152 151 152 153 154 157 156 166
313 310 310 307 312 314 314 316 317 320 329 337 345 348 353 358 7 32 82 83 79 65 91 139 151 150 151 155 155 152 150 147 146 149 152 154 155 158 161 165 170 171 186
312 310 309 310 312 312 313 314 317 318 316 319 331 346 358 5 20 46 59 62 108 87 87 122 148 150 154 156 156 158 161 161 156 156 159 160 162 161 167 173 176 184 185
308 310 315 310 311 313 312 313 315 316 316 319 324 329 345 6 20 22 26 38 70 77 121 148 149 149 159 162 162 160 158 160 162 166 166 167 168 170 173 175 179 188 206
309 309 315 314 308 304 303 302 301 303 306 313 312 323 345 357 356 359 4 13 5 242 202 170 162 161 163 162 164 165 166 170 172 171 168 170 172 173 176 178 186 193 197
308 306 308 307 310 312 310 305 304 306 310 314 320 336 354 359 353 352 348 347 341 325 243 171 173 179 179 179 176 175 175 177 177 175 175 174 174 172 171 176 181 185 185
311 313 316 317 317 317 323 320 318 315 312 317 322 328 339 341 335 345 355 359 9 16 25 85 148 156 154 165 176 183 186 190 186 177 173 172 172 172 171 174 179 181 190
311 311 313 315 317 316 317 320 324 320 318 318 320 321 324 330 340 359 3 3 10 10 14 37 157 172 172 171 182 186 192 186 176 175 171 171 173 174 172 175 180 185 187
322 316 312 311 311 314 316 318 319 318 317 318 320 320 324 333 347 356 359 9 12 11 8 8 79 160 176 185 193 190 178 174 168 161 162 164 167 170 171 169 170 168 167
322 319 315 312 312 311 309 310 312 313 310 313 314 311 315 321 329 336 354 11 14 9 356 357 39 159 173 181 171 170 166 157 150 147 146 150 150 154 155 156 156 159 156
Height
1388 1386 1385 1384 1384 1384 1383 1383 1384 1385 1387 1387 1388 1389 1391 1392 1394 1396 1397 1399 1400 1402 1403 1405 1406 1408 1410 1412 1413 1415 1415 1416 1415 1414 1417 1419 1421 1422 1424 1425 1426 1426 1427
1383 1381 1380 1379 1378 1377 1376 1376 1377 1378 1378 1379 1380 1381 1382 1383 1385 1386 1388 1390 1391 1392 1394 1396 1397 1399 1401 1403 1404 1405 1407 1408 1408 1407 1408 1411 1413 1415 1416 1417 1418 1418 1419
1377 1376 1374 1373 1372 1371 1370 1370 1369 1369 1370 1371 1371 1372 1373 1374 1376 1377 1379 1381 1382 1384 1386 1387 1388 1391 1392 1394 1395 1397 1398 1400 1401 1401 1401 1403 1405 1407 1408 1409 1410 1411 1411
1372 1370 1368 1367 1366 1365 1363 1363 1362 1362 1362 1362 1363 1364 1365 1366 1367 1369 1371 1372 1374 1376 1377 1379 1381 1382 1383 1385 1387 1388 1391 1392 1393 1394 1394 1395 1397 1398 1400 1401 1402 1403 1404
1368 1365 1363 1361 1360 1358 1357 1355 1355 1354 1355 1355 1355 1356 1357 1358 1359 1360 1362 1364 1366 1367 1369 1371 1372 1374 1375 1377 1379 1380 1382 1384 1385 1386 1386 1388 1389 1390 1391 1393 1394 1395 1396
1363 1361 1359 1357 1354 1352 1350 1349 1349 1348 1348 1348 1348 1349 1349 1350 1351 1352 1354 1356 1358 1359 1361 1363 1364 1366 1367 1369 1371 1372 1374 1376 1376 1377 1378 1379 1380 1382 1384 1385 1386 1387 1388
1359 1356 1354 1352 1349 1347 1345 1344 1343 1342 1342 1342 1341 1341 1341 1342 1344 1345 1347 1348 1350 1352 1353 1355 1357 1358 1360 1361 1362 1364 1366 1367 1369 1370 1370 1371 1373 1374 1376 1377 1379 1379 1380
1355 1352 1350 1347 1344 1342 1340 1338 1337 1336 1335 1335 1335 1335 1335 1336 1337 1339 1340 1342 1342 1344 1346 1348 1349 1350 1352 1354 1355 1356 1357 1359 1361 1362 1363 1365 1367 1368 1369 1371 1372 1373 1374
1351 1348 1346 1343 1340 1338 1336 1334 1333 1331 1330 1329 1329 1329 1329 1329 1331 1332 1334 1335 1335 1336 1339 1341 1342 1344 1345 1347 1348 1349 1349 1351 1353 1355 1357 1358 1360 1361 1363 1364 1365 1366 1366
1348 1345 1342 1339 1337 1335 1332 1331 1329 1328 1326 1325 1324 1324 1323 1324 1325 1327 1328 1329 1330 1331 1332 1334 1336 1337 1338 1340 1341 1342 1343 1344 1346 1347 1350 1351 1353 1355 1356 1358 1358 1359 1360
1344 1341 1338 1335 1333 1331 1329 1328 1326 1324 1323 1321 1320 1320 1319 1319 1320 1321 1323 1323 1324 1325 1326 1328 1329 1331 1332 1334 1336 1336 1337 1339 1340 1341 1343 1345 1347 1349 1350 1351 1352 1353 1354
1340 1337 1334 1332 1330 1328 1326 1324 1323 1321 1319 1318 1317 1315 1315 1315 1316 1316 1317 1319 1320 1321 1321 1323 1324 1326 1327 1329 1330 1332 1333 1334 1335 1336 1337 1339 1341 1343 1344 1346 1347 1348 1349
1336 1333 1331 1328 1326 1324 1323 1321 1319 1318 1316 1314 1313 1312 1311 1312 1312 1313 1314 1314 1315 1316 1317 1319 1320 1321 1323 1324 1326 1327 1328 1329 1330 1332 1333 1335 1336 1338 1339 1341 1342 1343 1345
1333 1330 1328 1325 1323 1321 1319 1318 1316 1315 1313 1311 1310 1309 1308 1309 1309 1309 1310 1310 1311 1312 1313 1314 1316 1317 1318 1320 1321 1322 1324 1325 1327 1328 1329 1331 1332 1334 1335 1336 1337 1338 1340
1329 1327 1324 1322 1320 1318 1316 1315 1313 1312 1311 1309 1308 1307 1306 1305 1306 1307 1307 1307 1307 1309 1310 1311 1311 1312 1313 1315 1316 1318 1320 1322 1323 1325 1326 1327 1328 1330 1331 1332 1333 1334 1335
1326 1324 1321 1319 1318 1316 1313 1312 1311 1310 1308 1307 1306 1306 1304 1304 1304 1303 1303 1304 1304 1305 1306 1306 1307 1308 1310 1311 1313 1315 1317 1318 1320 1322 1323 1324 1325 1327 1328 1329 1330 1331 1332
1323 1321 1319 1317 1315 1313 1311 1309 1307 1306 1306 1305 1304 1303 1302 1301 1301 1300 1300 1301 1301 1302 1303 1303 1304 1306 1307 1309 1310 1312 1314 1316 1317 1319 1320 1322 1323 1324 1325 1326 1327 1328 1328
1321 1318 1317 1315 1313 1311 1309 1307 1305 1304 1302 1301 1301 1300 1299 1299 1298 1298 1298 1298 1298 1299 1300 1301 1302 1303 1305 1306 1308 1309 1311 1313 1314 1316 1317 1319 1320 1321 1322 1323 1324 1325 1326
1318 1316 1314 1312 1311 1309 1307 1306 1304 1303 1301 1300 1299 1298 1298 1297 1297 1297 1296 1296 1296 1297 1298 1299 1300 1301 1303 1304 1306 1307 1308 1310 1311 1313 1314 1316 1317 1318 1319 1320 1321 1322 1323
1315 1313 1311 1310 1308 1306 1305 1304 1302 1301 1300 1299 1298 1297 1296 1296 1295 1295 1295 1295 1295 1295 1296 1297 1298 1299 1301 1302 1303 1304 1306 1307 1308 1310 1311 1313 1314 1315 1316 1317 1318 1319 1320
1312 1310 1309 1307 1306 1304 1303 1302 1300 1299 1298 1297 1297 1296 1296 1295 1294 1294 1293 1293 1294 1294 1295 1295 1296 1297 1298 1300 1301 1302 1303 1305 1306 1307 1309 1310 1311 1312 1314 1315 1316 1317 1318
1310 1308 1306 1305 1304 1302 1301 1300 1299 1298 1297 1296 1295 1295 1294 1294 1293 1293 1292 1292 1293 1293 1293 1294 1294 1295 1296 1298 1299 1300 1301 1302 1303 1305 1306 1307 1309 1310 1311 1312 1314 1315 1316
1307 1306 1304 1303 1302 1300 1299 1298 1297 1296 1295 1294 1294 1293 1293 1292 1291 1291 1291 1291 1291 1291 1292 1292 1293 1294 1295 1296 1297 1298 1299 1300 1301 1302 1303 1305 1306 1308 1309 1310 1311 1312 1313
1305 1304 1302 1301 1300 1298 1297 1296 1295 1294 1294 1293 1292 1292 1291 1291 1290 1290 1290 1290 1290 1290 1291 1291 1292 1292 1293 1294 1295 1296 1297 1298 1299 1300 1302 1303 1304 1305 1307 1308 1309 1311 1311
1303 1301 1300 1299 1298 1297 1296 1295 1294 1293 1292 1292 1291 1291 1290 1290 1290 1289 1289 1289 1289 1289 1289 1290 1290 1290 1291 1292 1293 1294 1295 1296 1297 1299 1300 1301 1302 1303 1305 1306 1307 1309 1310
1301 1299 1298 1297 1296 1295 1294 1293 1293 1292 1291 1291 1290 1290 1289 1289 1289 1288 1288 1288 1288 1288 1288 1288 1289 1289 1290 1291 1291 1292 1293 1294 1295 1297 1298 1299 1300 1302 1303 1305 1306 1307 1308